African Highway — 3EOD8 — position and weather

sailwx.info

Track history (hours):
 
Tides and Currents Weather Stations Pressure Air Temp Water Temp Dewpoint Dewpoint Depression Visibility Wind Speed Wind Dir Waves Ship Positions

African Highway

Last reported at 2014-Oct-25 07:33 UTC. Time now 2014-Oct-25 15:20 UTC.
Position N 53°26' E 004°36'.

Length 154.5 m; beam 27.6 m.

Type: Cargo ship. MMSI: 353633000.

Date/timePositionNaut miles runAvg speedWind from/ knotsBaromVisibWave heightAir tempDewpointWater temp
2014-Oct-25 07:33N 53°26' E 004°36'1313.3
2014-Oct-25 06:33N 53°32' E 004°55'1313.3
2014-Oct-25 05:33N 53°36' E 005°16'1413.9
2014-Oct-25 04:33N 53°41' E 005°39'1515.0
2014-Oct-25 03:33N 53°45' E 006°03'1212.0
2014-Oct-25 02:33N 53°38' E 006°19'1313.3
2014-Oct-25 01:34N 53°34' E 006°40'1615.9
2014-Oct-25 00:33N 53°22' E 006°59'8 7.6
2014-Oct-24 23:33N 53°20' E 007°11'1 0.5
2014-Oct-24 22:33N 53°20' E 007°12'0 0.3
2014-Oct-24 21:32N 53°21' E 007°12'0 0.0
2014-Oct-24 20:32N 53°21' E 007°12'0 0.0
2014-Oct-24 19:32N 53°21' E 007°12'0 0.0
2014-Oct-24 18:32N 53°21' E 007°12'0 0.0
2014-Oct-24 17:32N 53°21' E 007°12'0 0.0
2014-Oct-24 16:32N 53°21' E 007°12'0 0.0
2014-Oct-24 15:32N 53°21' E 007°12'0 0.0
2014-Oct-24 14:32N 53°21' E 007°12'0 0.0
2014-Oct-24 13:32N 53°21' E 007°12'0 0.0
2014-Oct-24 12:32N 53°21' E 007°12'0 0.0
2014-Oct-24 11:32N 53°21' E 007°12'0 0.5
2014-Oct-24 10:33N 53°20' E 007°11'4 3.9
2014-Oct-24 09:33N 53°20' E 007°05'1110.8
2014-Oct-24 08:33N 53°27' E 006°52'1616.4
2014-Oct-24 07:33N 53°37' E 006°29'1312.8
2014-Oct-24 06:34N 53°39' E 006°08'1413.4
2014-Oct-24 05:33N 53°50' E 005°55'1615.9
2014-Oct-24 04:33N 53°56' E 005°30'1716.8
2014-Oct-24 03:33N 53°59' E 005°02'1616.4
2014-Oct-24 02:33N 53°59' E 004°34'14616.3
2014-Oct-23 17:33N 53°32' E 000°31'1313.2
2014-Oct-23 16:33N 53°33' E 000°09'8 8.0
2014-Oct-23 15:33N 53°35' W 000°04'0 0.0
2014-Oct-23 14:31N 53°35' W 000°04'0 0.0
2014-Oct-23 13:28N 53°35' W 000°04'0 0.0
2014-Oct-23 12:28N 53°35' W 000°04'0 0.0
2014-Oct-23 11:31N 53°35' W 000°04'0 0.0
2014-Oct-23 10:31N 53°35' W 000°04'0 0.0
2014-Oct-23 09:31N 53°35' W 000°04'0 0.0
2014-Oct-23 08:31N 53°35' W 000°04'0 0.0
2014-Oct-23 07:31N 53°35' W 000°04'0 0.0
2014-Oct-23 06:31N 53°35' W 000°04'0 0.0
2014-Oct-23 05:31N 53°35' W 000°04'2 1.7
2014-Oct-23 04:33N 53°35' W 000°01'1110.6
2014-Oct-23 03:33N 53°33' E 000°16'4 4.4
2014-Oct-23 02:34N 53°33' E 000°23'8 8.4
2014-Oct-23 01:33N 53°32' E 000°38'1 1.0
2014-Oct-23 00:34N 53°33' E 000°37'7 6.7
2014-Oct-22 23:31N 53°31' E 000°48'0 0.3
2014-Oct-22 22:32N 53°31' E 000°49'8 8.6
2014-Oct-22 21:33N 53°33' E 000°35'10 9.0
2014-Oct-22 20:27N 53°31' E 000°51'2511.7
2014-Oct-22 18:21N 53°13' E 001°19'911.5
2014-Oct-22 17:33N 53°11' E 001°34'1212.4
2014-Oct-22 16:33N 53°06' E 001°53'1514.5
2014-Oct-22 15:31N 52°58' E 002°14'2114.2
2014-Oct-22 14:03N 52°37' E 002°19'815.7
2014-Oct-22 13:33N 52°29' E 002°18'4613.6
2014-Oct-22 10:08N 51°44' E 002°34'813.9
2014-Oct-22 09:33N 51°38' E 002°26'1313.3
2014-Oct-22 08:33N 51°27' E 002°13'1312.6
2014-Oct-22 07:33N 51°16' E 002°05'1211.7
2014-Oct-22 06:33N 51°08' E 001°51'1211.5
2014-Oct-22 05:33N 51°00' E 001°37'1110.7
2014-Oct-22 04:33N 50°52' E 001°27'1111.3
2014-Oct-22 03:33N 50°42' E 001°19'15 1.6
2014-Oct-21 18:32N 50°55' E 001°09'1515.1
2014-Oct-21 17:33N 51°04' E 001°28'1414.5
2014-Oct-21 16:34N 51°14' E 001°45'1313.4
2014-Oct-21 15:33N 51°25' E 001°57'1212.0
2014-Oct-21 14:33N 51°35' E 002°09'1111.3
2014-Oct-21 13:32N 51°43' E 002°21'1210.8
2014-Oct-21 12:28N 51°52' E 002°33'11613.0
2014-Oct-21 03:30N 53°22' E 004°35'1212.5
2014-Oct-21 02:33N 53°30' E 004°49'1414.0
2014-Oct-21 01:33N 53°36' E 005°10'1515.1
2014-Oct-21 00:33N 53°41' E 005°34'1615.5
2014-Oct-20 23:33N 53°46' E 005°59'1211.8
2014-Oct-20 22:33N 53°43' E 006°18'1110.9
2014-Oct-20 21:33N 53°37' E 006°34'1616.0
2014-Oct-20 20:33N 53°26' E 006°54'1010.1
2014-Oct-20 19:33N 53°20' E 007°07'2 1.5
2014-Oct-20 18:32N 53°20' E 007°10'0 0.0
2014-Oct-20 17:32N 53°20' E 007°10'0 0.0
2014-Oct-20 16:32N 53°20' E 007°10'0 0.0
2014-Oct-20 15:32N 53°20' E 007°10'0 0.0
2014-Oct-20 14:32N 53°20' E 007°10'0 0.0
2014-Oct-20 13:32N 53°20' E 007°10'0 0.0
2014-Oct-20 12:32N 53°20' E 007°10'0 0.0
2014-Oct-20 11:32N 53°20' E 007°10'0 0.0
2014-Oct-20 10:32N 53°20' E 007°10'0 0.0
2014-Oct-20 09:32N 53°20' E 007°10'0 0.0
2014-Oct-20 08:32N 53°20' E 007°10'0 0.0
2014-Oct-20 07:32N 53°20' E 007°10'0 0.0
2014-Oct-20 06:32N 53°20' E 007°10'0 0.0
2014-Oct-20 05:32N 53°20' E 007°10'0 0.0
2014-Oct-20 04:32N 53°20' E 007°10'0 0.0
2014-Oct-20 03:32N 53°20' E 007°10'0 0.0
2014-Oct-20 02:32N 53°20' E 007°10'0 0.0
2014-Oct-20 01:32N 53°20' E 007°10'0 0.0
2014-Oct-20 00:32N 53°20' E 007°10'0 0.0
2014-Oct-19 23:29N 53°20' E 007°10'0 0.0
2014-Oct-19 22:32N 53°20' E 007°10'0 0.0
2014-Oct-19 21:29N 53°20' E 007°10'2 1.9
2014-Oct-19 20:33N 53°20' E 007°07'1111.5
2014-Oct-19 19:33N 53°27' E 006°52'1313.3
2014-Oct-19 18:34N 53°36' E 006°35'1211.7
2014-Oct-19 17:33N 53°38' E 006°16'1 1.1
2014-Oct-19 16:33N 53°38' E 006°18'1414.4
2014-Oct-19 15:33N 53°37' E 005°53'1212.3
2014-Oct-19 14:34N 53°49' E 005°51'1414.2
2014-Oct-19 13:33N 53°55' E 005°29'1615.9
2014-Oct-19 12:34N 53°58' E 005°03'1615.7
2014-Oct-19 11:34N 53°60' E 004°36'14015.5
2014-Oct-19 02:33N 53°35' E 000°44'1515.5
2014-Oct-19 01:33N 53°32' E 000°18'10 9.6
2014-Oct-19 00:33N 53°35' E 000°02'4 3.5
2014-Oct-18 23:28N 53°35' W 000°04'0 0.0
2014-Oct-18 22:33N 53°35' W 000°04'0 0.0
2014-Oct-18 21:27N 53°35' W 000°04'0 0.0
2014-Oct-18 20:34N 53°35' W 000°04'0 0.0
2014-Oct-18 19:31N 53°35' W 000°04'0 0.0
2014-Oct-18 18:28N 53°35' W 000°04'0 0.0
2014-Oct-18 17:34N 53°35' W 000°04'0 0.0
2014-Oct-18 16:34N 53°35' W 000°04'0 0.0
2014-Oct-18 15:30N 53°35' W 000°04'0 0.0
2014-Oct-18 14:33N 53°35' W 000°04'0 0.0
2014-Oct-18 13:31N 53°35' W 000°04'0 0.0
2014-Oct-18 12:33N 53°35' W 000°04'0 0.0
2014-Oct-18 11:33N 53°35' W 000°04'0 0.0
2014-Oct-18 10:31N 53°35' W 000°04'0 0.0
2014-Oct-18 09:31N 53°35' W 000°04'0 0.0
2014-Oct-18 08:33N 53°35' W 000°04'0 0.0
2014-Oct-18 07:34N 53°35' W 000°04'0 0.0
2014-Oct-18 06:33N 53°35' W 000°04'0 0.0
2014-Oct-18 05:34N 53°35' W 000°04'0 0.0
2014-Oct-18 04:30N 53°35' W 000°04'0 0.0
2014-Oct-18 03:30N 53°35' W 000°04'0 0.0
2014-Oct-18 02:34N 53°35' W 000°04'0 0.0
2014-Oct-18 01:33N 53°35' W 000°04'1 0.7
2014-Oct-18 00:33N 53°35' W 000°03'9 8.6
2014-Oct-17 23:33N 53°33' E 000°11'8 7.6
2014-Oct-17 22:33N 53°33' E 000°24'1312.3
2014-Oct-17 21:32N 53°35' E 000°45'32 3.2
2014-Oct-17 11:28N 53°51' E 001°33'110 9.9
2014-Oct-17 00:21N 54°03' E 004°38'1113.8
2014-Oct-16 23:33N 54°02' E 004°57'1413.9
2014-Oct-16 22:33N 53°59' E 005°20'1414.1
2014-Oct-16 21:33N 53°55' E 005°43'1514.6
2014-Oct-16 20:33N 53°52' E 006°07'1211.1
2014-Oct-16 19:31N 53°43' E 006°19'10 9.9
2014-Oct-16 18:33N 53°37' E 006°32'1616.1
2014-Oct-16 17:33N 53°27' E 006°53'1111.2
2014-Oct-16 16:33N 53°20' E 007°08'2 2.2
2014-Oct-16 15:31N 53°21' E 007°12'0 0.0
2014-Oct-16 14:31N 53°21' E 007°12'0 0.0
2014-Oct-16 13:31N 53°21' E 007°12'0 0.0
2014-Oct-16 12:31N 53°21' E 007°12'0 0.0
2014-Oct-16 11:31N 53°21' E 007°12'0 0.0
2014-Oct-16 10:31N 53°21' E 007°12'0 0.0
2014-Oct-16 09:28N 53°21' E 007°12'0 0.0
2014-Oct-16 08:31N 53°21' E 007°12'0 0.0
2014-Oct-16 07:31N 53°21' E 007°12'0 0.0
2014-Oct-16 06:31N 53°21' E 007°12'0 0.0
2014-Oct-16 05:31N 53°21' E 007°12'0 0.5
2014-Oct-16 04:33N 53°20' E 007°11'6 5.8
2014-Oct-16 03:33N 53°19' E 007°02'1312.9
2014-Oct-16 02:33N 53°30' E 006°49'1514.6
2014-Oct-16 01:33N 53°37' E 006°27'7 6.8
2014-Oct-16 00:34N 53°40' E 006°17'1212.0
2014-Oct-15 23:33N 53°51' E 006°09'1817.6
2014-Oct-15 22:34N 53°55' E 005°40'1717.3
2014-Oct-15 21:33N 53°59' E 005°11'1716.8
2014-Oct-15 20:33N 54°00' E 004°42'14115.7
2014-Oct-15 11:32N 53°35' E 000°46'1414.9
2014-Oct-15 10:34N 53°32' E 000°22'9 9.3
2014-Oct-15 09:33N 53°33' E 000°07'7 6.5
2014-Oct-15 08:32N 53°35' W 000°04'  
Track history (hours):
 
Tides and Currents Weather Stations Pressure Air Temp Water Temp Dewpoint Dewpoint Depression Visibility Wind Speed Wind Dir Waves Ship Positions

African Highway

Last reported at 2014-Oct-25 07:33 UTC. Time now 2014-Oct-25 15:20 UTC.
Position N 53°26' E 004°36'.

Length 154.5 m; beam 27.6 m.

Type: Cargo ship. MMSI: 353633000.

Date/timePositionNaut miles runAvg speedWind from/ knotsBaromVisibWave heightAir tempDewpointWater temp
2014-Oct-25 07:33N 53°26' E 004°36'1313.3
2014-Oct-25 06:33N 53°32' E 004°55'1313.3
2014-Oct-25 05:33N 53°36' E 005°16'1413.9
2014-Oct-25 04:33N 53°41' E 005°39'1515.0
2014-Oct-25 03:33N 53°45' E 006°03'1212.0
2014-Oct-25 02:33N 53°38' E 006°19'1313.3
2014-Oct-25 01:34N 53°34' E 006°40'1615.9
2014-Oct-25 00:33N 53°22' E 006°59'8 7.6
2014-Oct-24 23:33N 53°20' E 007°11'1 0.5
2014-Oct-24 22:33N 53°20' E 007°12'0 0.3
2014-Oct-24 21:32N 53°21' E 007°12'0 0.0
2014-Oct-24 20:32N 53°21' E 007°12'0 0.0
2014-Oct-24 19:32N 53°21' E 007°12'0 0.0
2014-Oct-24 18:32N 53°21' E 007°12'0 0.0
2014-Oct-24 17:32N 53°21' E 007°12'0 0.0
2014-Oct-24 16:32N 53°21' E 007°12'0 0.0
2014-Oct-24 15:32N 53°21' E 007°12'0 0.0
2014-Oct-24 14:32N 53°21' E 007°12'0 0.0
2014-Oct-24 13:32N 53°21' E 007°12'0 0.0
2014-Oct-24 12:32N 53°21' E 007°12'0 0.0
2014-Oct-24 11:32N 53°21' E 007°12'0 0.5
2014-Oct-24 10:33N 53°20' E 007°11'4 3.9
2014-Oct-24 09:33N 53°20' E 007°05'1110.8
2014-Oct-24 08:33N 53°27' E 006°52'1616.4
2014-Oct-24 07:33N 53°37' E 006°29'1312.8
2014-Oct-24 06:34N 53°39' E 006°08'1413.4
2014-Oct-24 05:33N 53°50' E 005°55'1615.9
2014-Oct-24 04:33N 53°56' E 005°30'1716.8
2014-Oct-24 03:33N 53°59' E 005°02'1616.4
2014-Oct-24 02:33N 53°59' E 004°34'14616.3
2014-Oct-23 17:33N 53°32' E 000°31'1313.2
2014-Oct-23 16:33N 53°33' E 000°09'8 8.0
2014-Oct-23 15:33N 53°35' W 000°04'0 0.0
2014-Oct-23 14:31N 53°35' W 000°04'0 0.0
2014-Oct-23 13:28N 53°35' W 000°04'0 0.0
2014-Oct-23 12:28N 53°35' W 000°04'0 0.0
2014-Oct-23 11:31N 53°35' W 000°04'0 0.0
2014-Oct-23 10:31N 53°35' W 000°04'0 0.0
2014-Oct-23 09:31N 53°35' W 000°04'0 0.0
2014-Oct-23 08:31N 53°35' W 000°04'0 0.0
2014-Oct-23 07:31N 53°35' W 000°04'0 0.0
2014-Oct-23 06:31N 53°35' W 000°04'0 0.0
2014-Oct-23 05:31N 53°35' W 000°04'2 1.7
2014-Oct-23 04:33N 53°35' W 000°01'1110.6
2014-Oct-23 03:33N 53°33' E 000°16'4 4.4
2014-Oct-23 02:34N 53°33' E 000°23'8 8.4
2014-Oct-23 01:33N 53°32' E 000°38'1 1.0
2014-Oct-23 00:34N 53°33' E 000°37'7 6.7
2014-Oct-22 23:31N 53°31' E 000°48'0 0.3
2014-Oct-22 22:32N 53°31' E 000°49'8 8.6
2014-Oct-22 21:33N 53°33' E 000°35'10 9.0
2014-Oct-22 20:27N 53°31' E 000°51'2511.7
2014-Oct-22 18:21N 53°13' E 001°19'911.5
2014-Oct-22 17:33N 53°11' E 001°34'1212.4
2014-Oct-22 16:33N 53°06' E 001°53'1514.5
2014-Oct-22 15:31N 52°58' E 002°14'2114.2
2014-Oct-22 14:03N 52°37' E 002°19'815.7
2014-Oct-22 13:33N 52°29' E 002°18'4613.6
2014-Oct-22 10:08N 51°44' E 002°34'813.9
2014-Oct-22 09:33N 51°38' E 002°26'1313.3
2014-Oct-22 08:33N 51°27' E 002°13'1312.6
2014-Oct-22 07:33N 51°16' E 002°05'1211.7
2014-Oct-22 06:33N 51°08' E 001°51'1211.5
2014-Oct-22 05:33N 51°00' E 001°37'1110.7
2014-Oct-22 04:33N 50°52' E 001°27'1111.3
2014-Oct-22 03:33N 50°42' E 001°19'15 1.6
2014-Oct-21 18:32N 50°55' E 001°09'1515.1
2014-Oct-21 17:33N 51°04' E 001°28'1414.5
2014-Oct-21 16:34N 51°14' E 001°45'1313.4
2014-Oct-21 15:33N 51°25' E 001°57'1212.0
2014-Oct-21 14:33N 51°35' E 002°09'1111.3
2014-Oct-21 13:32N 51°43' E 002°21'1210.8
2014-Oct-21 12:28N 51°52' E 002°33'11613.0
2014-Oct-21 03:30N 53°22' E 004°35'1212.5
2014-Oct-21 02:33N 53°30' E 004°49'1414.0
2014-Oct-21 01:33N 53°36' E 005°10'1515.1
2014-Oct-21 00:33N 53°41' E 005°34'1615.5
2014-Oct-20 23:33N 53°46' E 005°59'1211.8
2014-Oct-20 22:33N 53°43' E 006°18'1110.9
2014-Oct-20 21:33N 53°37' E 006°34'1616.0
2014-Oct-20 20:33N 53°26' E 006°54'1010.1
2014-Oct-20 19:33N 53°20' E 007°07'2 1.5
2014-Oct-20 18:32N 53°20' E 007°10'0 0.0
2014-Oct-20 17:32N 53°20' E 007°10'0 0.0
2014-Oct-20 16:32N 53°20' E 007°10'0 0.0
2014-Oct-20 15:32N 53°20' E 007°10'0 0.0
2014-Oct-20 14:32N 53°20' E 007°10'0 0.0
2014-Oct-20 13:32N 53°20' E 007°10'0 0.0
2014-Oct-20 12:32N 53°20' E 007°10'0 0.0
2014-Oct-20 11:32N 53°20' E 007°10'0 0.0
2014-Oct-20 10:32N 53°20' E 007°10'0 0.0
2014-Oct-20 09:32N 53°20' E 007°10'0 0.0
2014-Oct-20 08:32N 53°20' E 007°10'0 0.0
2014-Oct-20 07:32N 53°20' E 007°10'0 0.0
2014-Oct-20 06:32N 53°20' E 007°10'0 0.0
2014-Oct-20 05:32N 53°20' E 007°10'0 0.0
2014-Oct-20 04:32N 53°20' E 007°10'0 0.0
2014-Oct-20 03:32N 53°20' E 007°10'0 0.0
2014-Oct-20 02:32N 53°20' E 007°10'0 0.0
2014-Oct-20 01:32N 53°20' E 007°10'0 0.0
2014-Oct-20 00:32N 53°20' E 007°10'0 0.0
2014-Oct-19 23:29N 53°20' E 007°10'0 0.0
2014-Oct-19 22:32N 53°20' E 007°10'0 0.0
2014-Oct-19 21:29N 53°20' E 007°10'2 1.9
2014-Oct-19 20:33N 53°20' E 007°07'1111.5
2014-Oct-19 19:33N 53°27' E 006°52'1313.3
2014-Oct-19 18:34N 53°36' E 006°35'1211.7
2014-Oct-19 17:33N 53°38' E 006°16'1 1.1
2014-Oct-19 16:33N 53°38' E 006°18'1414.4
2014-Oct-19 15:33N 53°37' E 005°53'1212.3
2014-Oct-19 14:34N 53°49' E 005°51'1414.2
2014-Oct-19 13:33N 53°55' E 005°29'1615.9
2014-Oct-19 12:34N 53°58' E 005°03'1615.7
2014-Oct-19 11:34N 53°60' E 004°36'14015.5
2014-Oct-19 02:33N 53°35' E 000°44'1515.5
2014-Oct-19 01:33N 53°32' E 000°18'10 9.6
2014-Oct-19 00:33N 53°35' E 000°02'4 3.5
2014-Oct-18 23:28N 53°35' W 000°04'0 0.0
2014-Oct-18 22:33N 53°35' W 000°04'0 0.0
2014-Oct-18 21:27N 53°35' W 000°04'0 0.0
2014-Oct-18 20:34N 53°35' W 000°04'0 0.0
2014-Oct-18 19:31N 53°35' W 000°04'0 0.0
2014-Oct-18 18:28N 53°35' W 000°04'0 0.0
2014-Oct-18 17:34N 53°35' W 000°04'0 0.0
2014-Oct-18 16:34N 53°35' W 000°04'0 0.0
2014-Oct-18 15:30N 53°35' W 000°04'0 0.0
2014-Oct-18 14:33N 53°35' W 000°04'0 0.0
2014-Oct-18 13:31N 53°35' W 000°04'0 0.0
2014-Oct-18 12:33N 53°35' W 000°04'0 0.0
2014-Oct-18 11:33N 53°35' W 000°04'0 0.0
2014-Oct-18 10:31N 53°35' W 000°04'0 0.0
2014-Oct-18 09:31N 53°35' W 000°04'0 0.0
2014-Oct-18 08:33N 53°35' W 000°04'0 0.0
2014-Oct-18 07:34N 53°35' W 000°04'0 0.0
2014-Oct-18 06:33N 53°35' W 000°04'0 0.0
2014-Oct-18 05:34N 53°35' W 000°04'0 0.0
2014-Oct-18 04:30N 53°35' W 000°04'0 0.0
2014-Oct-18 03:30N 53°35' W 000°04'0 0.0
2014-Oct-18 02:34N 53°35' W 000°04'0 0.0
2014-Oct-18 01:33N 53°35' W 000°04'1 0.7
2014-Oct-18 00:33N 53°35' W 000°03'9 8.6
2014-Oct-17 23:33N 53°33' E 000°11'8 7.6
2014-Oct-17 22:33N 53°33' E 000°24'1312.3
2014-Oct-17 21:32N 53°35' E 000°45'32 3.2
2014-Oct-17 11:28N 53°51' E 001°33'110 9.9
2014-Oct-17 00:21N 54°03' E 004°38'1113.8
2014-Oct-16 23:33N 54°02' E 004°57'1413.9
2014-Oct-16 22:33N 53°59' E 005°20'1414.1
2014-Oct-16 21:33N 53°55' E 005°43'1514.6
2014-Oct-16 20:33N 53°52' E 006°07'1211.1
2014-Oct-16 19:31N 53°43' E 006°19'10 9.9
2014-Oct-16 18:33N 53°37' E 006°32'1616.1
2014-Oct-16 17:33N 53°27' E 006°53'1111.2
2014-Oct-16 16:33N 53°20' E 007°08'2 2.2
2014-Oct-16 15:31N 53°21' E 007°12'0 0.0
2014-Oct-16 14:31N 53°21' E 007°12'0 0.0
2014-Oct-16 13:31N 53°21' E 007°12'0 0.0
2014-Oct-16 12:31N 53°21' E 007°12'0 0.0
2014-Oct-16 11:31N 53°21' E 007°12'0 0.0
2014-Oct-16 10:31N 53°21' E 007°12'0 0.0
2014-Oct-16 09:28N 53°21' E 007°12'0 0.0
2014-Oct-16 08:31N 53°21' E 007°12'0 0.0
2014-Oct-16 07:31N 53°21' E 007°12'0 0.0
2014-Oct-16 06:31N 53°21' E 007°12'0 0.0
2014-Oct-16 05:31N 53°21' E 007°12'0 0.5
2014-Oct-16 04:33N 53°20' E 007°11'6 5.8
2014-Oct-16 03:33N 53°19' E 007°02'1312.9
2014-Oct-16 02:33N 53°30' E 006°49'1514.6
2014-Oct-16 01:33N 53°37' E 006°27'7 6.8
2014-Oct-16 00:34N 53°40' E 006°17'1212.0
2014-Oct-15 23:33N 53°51' E 006°09'1817.6
2014-Oct-15 22:34N 53°55' E 005°40'1717.3
2014-Oct-15 21:33N 53°59' E 005°11'1716.8
2014-Oct-15 20:33N 54°00' E 004°42'14115.7
2014-Oct-15 11:32N 53°35' E 000°46'1414.9
2014-Oct-15 10:34N 53°32' E 000°22'9 9.3
2014-Oct-15 09:33N 53°33' E 000°07'7 6.5
2014-Oct-15 08:32N 53°35' W 000°04'  

Dump ship's entire track history